Ukiah, CA

9:25 PM PDT on April 19, 2018 (GMT -0700)
Ukiah Municipal

Weather History for KUKI - October, 2013

Change the Weather History Date:

Wednesday, October 2, 2013

  Actual Average Record
Temperature  
Mean Temperature 58 °F 64 °F  
Max Temperature 72 °F 83 °F 105 °F (1980)
Min Temperature 44 °F 46 °F 32 °F (1916)
Degree Days  
Heating Degree Days 6 2  
Month to date heating degree days 4  
Since 1 July heating degree days 37  
Cooling Degree Days 0 2  
Month to date cooling degree days 4  
Year to date cooling degree days 817  
Growing Degree Days 8 (Base 50)    
Moisture  
Dew Point 42 °F    
Average Humidity 62    
Maximum Humidity 93    
Minimum Humidity 31    
Precipitation  
Precipitation 0.00 in 0.01 in 1.33 in (1937)
Month to date precipitation 0.00 0.01  
Year to date precipitation 6.16 23.98  
Since 1 July precipitation 0.58  
Snow  
Snow 0.00 in - - ()
Month to date snowfall 0.0  
Since 1 July snowfall 0.0  
Since 1 September snowfall 0.0  
Snow Depth -    
Sea Level Pressure  
Sea Level Pressure 30.02 in    
Wind  
Wind Speed 3 mph (NNW)    
Max Wind Speed 17 mph    
Max Gust Speed 22 mph    
Visibility 10 miles    
Events      
T = Trace of Precipitation, MM = Missing Value Source: NWS Daily Summary

Daily Weather History Graph

Daily Weather History Graph

Search for Another Location

Airport or City:

Astronomy

Oct. 02, 2013 Rise Set
Actual Time 7:10 AM PDT 6:53 PM PDT
Civil Twilight 6:43 AM PDT 7:19 PM PDT
Nautical Twilight 6:12 AM PDT 7:50 PM PDT
Astronomical Twilight 5:41 AM PDT 8:22 PM PDT
Moon 4:49 AM PDT (10/2) 5:31 PM PDT (10/2)
Length of Visible Light 12h 36m
Length of Day
11h 43m
Waning Crescent, 6% of the Moon is Illuminated
Oct 2
Waning Crescent
Oct 4
New
Oct 11
First Quarter
Oct 18
Full
Oct 26
Last Quarter

Hourly Weather History & Observations

Time (PDT) Temp. Dew Point Humidity Pressure Visibility Wind Dir Wind Speed Gust Speed Precip Events Conditions
12:56 AM 50.0 °F 45.0 °F 83% 29.99 in 10.0 mi Calm Calm - N/A   Clear
1:56 AM 46.9 °F 44.1 °F 90% 29.99 in 10.0 mi Calm Calm - N/A   Clear
2:56 AM 48.0 °F 44.1 °F 86% 29.99 in 10.0 mi Calm Calm - N/A   Clear
3:56 AM 46.9 °F 44.1 °F 90% 29.98 in 10.0 mi Calm Calm - N/A   Clear
4:56 AM 46.9 °F 44.1 °F 90% 29.98 in 10.0 mi Calm Calm - N/A   Clear
5:56 AM 46.9 °F 44.1 °F 90% 29.99 in 10.0 mi Calm Calm - N/A   Clear
6:56 AM 45.0 °F 42.1 °F 90% 30.01 in 10.0 mi Calm Calm - N/A   Clear
7:56 AM 45.0 °F 43.0 °F 93% 30.02 in 10.0 mi Calm Calm - N/A   Clear
8:56 AM 52.0 °F 46.0 °F 80% 30.04 in 10.0 mi Calm Calm - N/A   Clear
9:56 AM 59.0 °F 46.0 °F 62% 30.04 in 10.0 mi Calm Calm - N/A   Clear
10:56 AM 63.0 °F 46.0 °F 54% 30.03 in 10.0 mi Variable 6.9 mph - N/A   Clear
11:56 AM 66.0 °F 45.0 °F 47% 30.02 in 10.0 mi NNW 9.2 mph 16.1 mph N/A   Clear
12:56 PM 69.1 °F 42.1 °F 38% 30.01 in 10.0 mi NW 8.1 mph - N/A   Clear
1:56 PM 72.0 °F 41.0 °F 33% 29.98 in 10.0 mi West 9.2 mph - N/A   Clear
2:56 PM 72.0 °F 39.9 °F 31% 29.97 in 10.0 mi WNW 10.4 mph - N/A   Clear
3:56 PM 71.1 °F 39.9 °F 32% 29.98 in 10.0 mi WNW 9.2 mph 17.3 mph N/A   Clear
4:56 PM 68.0 °F 37.9 °F 33% 29.99 in 10.0 mi WNW 11.5 mph 20.7 mph N/A   Clear
5:56 PM 64.9 °F 37.9 °F 37% 30.01 in 10.0 mi NNW 12.7 mph 18.4 mph N/A   Clear
6:56 PM 61.0 °F 39.0 °F 44% 30.03 in 10.0 mi North 6.9 mph - N/A   Clear
7:56 PM 59.0 °F 39.0 °F 48% 30.05 in 10.0 mi North 6.9 mph - N/A   Clear
8:56 PM 57.0 °F 39.0 °F 51% 30.07 in 10.0 mi North 6.9 mph - N/A   Clear
9:56 PM 55.9 °F 39.0 °F 53% 30.07 in 10.0 mi NNE 6.9 mph - N/A   Clear
10:56 PM 55.0 °F 39.0 °F 55% 30.08 in 10.0 mi NNW 6.9 mph - N/A   Clear
11:56 PM 55.9 °F 37.9 °F 51% 30.08 in 10.0 mi NNW 9.2 mph - N/A   Clear